Location: Greenwich
(51.4790°N, 0.0090°E)
Time: 13:27:01
(UTC+01:00)

Altair - Pass Details

Date: 22 June 2025
Orbit: 1502 x 1682 km, 47.2° (Epoch: 19 July)

Event Time Altitude Azimuth Distance (km) Brightness Sun altitude
Rises 22:50:30 0° 218° (SW) 4,625 9.8 -9.7°
Reaches altitude 10° 22:53:43 10° 211° (SSW) 3,650 9.2 -10.0°
Maximum altitude 23:02:00 40° 146° (SE) 2,119 7.8 -10.6°
Drops below altitude 10° 23:10:28 10° 82° (E) 3,743 9.4 -11.2°
Sets 23:13:48 0° 75° (ENE) 4,753 10.0 -11.4°
